This demonstration page uses our WeatherBlox Daily Observations layout. Learn more.

38.88101, -77.10428

Hourly Observations for March 9, 2016

Temp ( °F °C ) Dew Point ( °F °C ) Humidity (%) Winds ( mph kmh ) Pressure ( in mb ) Visibility ( mi km ) Precip ( " mm )
12:52 am 00:52 Mostly Cloudy 55 12.8 41 5 59 59 SSW 3 6 30.12 1020 10 16.09344 0 0
1:52 am 01:52 Mostly Clear 54 12.2 41 5 62 62 SW 5 7 30.12 1020 10 16.09344 0 0
2:52 am 02:52 Clear 52 11.1 38 3.3 59 59 SSW 7 11 30.12 1020 10 16.09344 0 0
3:52 am 03:52 Mostly Clear 53 11.7 40 4.4 61 61 Calm 30.12 1020 10 16.09344 0 0
4:52 am 04:52 Clear 49 9.4 42 5.6 77 77 Calm 30.12 1020 10 16.09344 0 0
5:52 am 05:52 Mostly Clear 48 8.9 42 5.6 80 80 Calm 30.15 1021 10 16.09344 0 0
6:52 am 06:52 Mostly Cloudy 48 8.9 40 4.4 74 74 Calm 30.15 1021 10 16.09344 0 0
7:52 am 07:52 Partly Cloudy 50 10 43 6.1 77 77 S 3 6 30.18 1022 10 16.09344 0 0
8:52 am 08:52 Mostly Sunny 57 13.9 42 5.6 58 58 SSE 6 9 30.18 1022 10 16.09344 0 0
9:52 am 09:52 Mostly Sunny 62 16.7 44 6.7 52 52 S 7 11 30.18 1022 10 16.09344 0 0
10:52 am 10:52 Partly Cloudy 67 19.4 45 7.2 45 45 S 7 11 30.18 1022 10 16.09344 0 0
11:52 am 11:52 Partly Cloudy 70 21.1 46 7.8 42 42 S 8 13 30.15 1021 10 16.09344 0 0
12:52 pm 12:52 Mostly Cloudy 74 23.3 46 7.8 37 37 S 9 15 30.12 1020 10 16.09344 0 0
1:52 pm 13:52 Mostly Cloudy 75 23.9 45 7.2 34 34 S 9 15 30.09 1019 10 16.09344 0 0
2:52 pm 14:52 Mostly Cloudy 78 25.6 42 5.6 28 28 S 10 17 30.06 1018 10 16.09344 0 0
3:52 pm 15:52 Sunny 76 24.4 43 6.1 31 31 S 12 19 30.06 1018 10 16.09344 0 0
4:52 pm 16:52 Mostly Cloudy 76 24.4 43 6.1 31 31 S 9 15 30.06 1018 10 16.09344 0 0
5:52 pm 17:52 Mostly Cloudy 70 21.1 44 6.7 39 39 S 13 20 30.06 1018 10 16.09344 0 0
6:52 pm 18:52 Mostly Cloudy 65 18.3 44 6.7 47 47 S 10 17 30.06 1018 10 16.09344 0 0
7:52 pm 19:52 Partly Cloudy 66 18.9 45 7.2 47 47 S 6 9 30.06 1018 10 16.09344 0 0
8:52 pm 20:52 Partly Cloudy 64 17.8 47 8.3 54 54 S 8 13 30.09 1019 10 16.09344 0 0
9:52 pm 21:52 Partly Cloudy 63 17.2 48 8.9 58 58 S 10 17 30.09 1019 10 16.09344 0 0
10:52 pm 22:52 Partly Cloudy 62 16.7 49 9.4 62 62 S 10 17 30.09 1019 10 16.09344 0 0
11:52 pm 23:52 Mostly Cloudy 61 16.1 49 9.4 65 65 S 13 20 30.09 1019 10 16.09344 0 0

Powered by AerisWeather